Terug naar catalogus

SHUTIANYUXING-05

ActiefWetenschapSSO
NORAD 67751·PAYLOAD·🇨🇳 China
Deze satellietnaam is nog niet bevestigd door officiële bronnen.

Gelanceerd Feb 12, 2026 vanaf South China Sea Launch Area

Loading…

Volgende Passages (komende 24 uur)

TLE

VersSource: Space-Track

Epoch: Sep 14, 2026, 14:59 UTC

1 67751U 26027F   26257.62497511  .00004445  00000-0  25495-3 0  9995
2 67751  97.5186  23.7190 0010298 159.4274 200.7374 15.13036076 32435

Volg SHUTIANYUXING-05 in realtime met AllMySat

Download on the App Store